Time,TemperatureF,DewpointF,PressureIn,WindDirection,WindDirectionDegrees,WindSpeedMPH,WindSpeedGustMPH,Humidity,HourlyPrecipIn,Conditions,Clouds,dailyrainin,SoftwareType,DateUTC
2013-04-15 00:00:00,71.9,62.4,30.00,NNE,16,7.8,9.4,72,0.00,CLR,OVC,0.00,WeatherDisplay:10.37,2013-04-15 04:00:00,
2013-04-15 00:05:00,71.7,62.2,30.00,NNW,328,7.9,12.7,72,0.00,CLR,OVC,0.00,WeatherDisplay:10.37,2013-04-15 04:05:00,
2013-04-15 00:10:00,71.7,62.2,30.00,North,3,6.3,13.8,72,0.00,CLR,OVC,0.00,WeatherDisplay:10.37,2013-04-15 04:10:00,
2013-04-15 00:15:00,71.6,62.1,29.99,North,7,10.0,15.0,72,0.00,CLR,OVC,0.00,WeatherDisplay:10.37,2013-04-15 04:15:00,
2013-04-15 00:20:00,71.6,62.1,29.99,NW,311,7.7,13.8,72,0.00,CLR,OVC,0.00,WeatherDisplay:10.37,2013-04-15 04:20:00,
2013-04-15 00:25:00,71.6,62.1,29.99,North,359,5.1,10.4,72,0.00,CLR,OVC,0.00,WeatherDisplay:10.37,2013-04-15 04:25:00,
2013-04-15 00:30:00,71.6,62.1,29.99,NW,325,6.2,12.7,72,0.00,CLR,OVC,0.00,WeatherDisplay:10.37,2013-04-15 04:30:00,
2013-04-15 00:35:00,71.6,62.1,29.99,WNW,292,4.3,8.1,72,0.00,CLR,OVC,0.00,WeatherDisplay:10.37,2013-04-15 04:35:00,
2013-04-15 00:40:00,71.6,62.1,29.99,NNE,28,4.0,8.1,72,0.00,CLR,OVC,0.00,WeatherDisplay:10.37,2013-04-15 04:40:00,
2013-04-15 00:45:00,71.6,62.1,29.99,North,4,2.3,3.5,72,0.00,CLR,OVC,0.00,WeatherDisplay:10.37,2013-04-15 04:45:00,
2013-04-15 00:50:00,71.6,62.1,29.99,North,352,4.7,6.9,72,0.00,CLR,OVC,0.00,WeatherDisplay:10.37,2013-04-15 04:50:00,
2013-04-15 00:55:00,71.6,62.5,29.99,NNW,336,5.2,9.2,73,0.00,CLR,OVC,0.00,WeatherDisplay:10.37,2013-04-15 04:55:00,
2013-04-15 01:00:00,71.6,62.5,29.99,North,357,4.4,6.9,73,0.00,CLR,OVC,0.00,WeatherDisplay:10.37,2013-04-15 05:00:00,
2013-04-15 01:05:00,71.7,62.6,29.99,NE,38,2.7,4.6,73,0.00,CLR,OVC,0.00,WeatherDisplay:10.37,2013-04-15 05:05:00,
2013-04-15 01:10:00,71.8,62.7,29.99,NNE,32,3.0,6.9,73,0.00,CLR,OVC,0.00,WeatherDisplay:10.37,2013-04-15 05:10:00,
2013-04-15 01:15:00,71.9,62.8,29.99,NNE,27,0.0,0.0,73,0.00,CLR,OVC,0.00,WeatherDisplay:10.37,2013-04-15 05:15:00,
2013-04-15 01:20:00,71.9,62.8,29.99,NNE,13,4.6,9.2,73,0.00,CLR,OVC,0.00,WeatherDisplay:10.37,2013-04-15 05:20:00,
2013-04-15 01:25:00,71.9,62.8,29.99,NW,323,4.5,6.9,73,0.00,CLR,OVC,0.00,WeatherDisplay:10.37,2013-04-15 05:25:00,
2013-04-15 01:30:00,71.9,62.8,29.99,NNE,13,1.8,4.6,73,0.00,CLR,OVC,0.00,WeatherDisplay:10.37,2013-04-15 05:30:00,
2013-04-15 01:35:00,71.9,62.8,29.99,North,4,2.1,3.5,73,0.00,CLR,OVC,0.00,WeatherDisplay:10.37,2013-04-15 05:35:00,
2013-04-15 01:40:00,71.9,63.2,29.99,NNW,328,2.0,3.5,74,0.00,CLR,OVC,0.00,WeatherDisplay:10.37,2013-04-15 05:40:00,
2013-04-15 01:45:00,71.9,63.2,29.99,North,3,1.0,2.3,74,0.00,CLR,OVC,0.00,WeatherDisplay:10.37,2013-04-15 05:45:00,
2013-04-15 01:50:00,72.0,63.3,29.99,North,353,2.0,3.5,74,0.00,CLR,OVC,0.00,WeatherDisplay:10.37,2013-04-15 05:50:00,
2013-04-15 01:55:00,72.0,63.3,29.99,NNW,340,1.1,3.5,74,0.00,CLR,OVC,0.00,WeatherDisplay:10.37,2013-04-15 05:55:00,
2013-04-15 02:00:00,72.1,63.4,29.99,NNE,18,0.0,0.0,74,0.00,CLR,OVC,0.00,WeatherDisplay:10.37,2013-04-15 06:00:00,
2013-04-15 02:05:00,72.1,63.7,29.99,ENE,65,1.3,2.3,75,0.00,CLR,OVC,0.00,WeatherDisplay:10.37,2013-04-15 06:05:00,
2013-04-15 02:10:00,72.1,63.7,29.99,ENE,62,0.0,0.0,75,0.00,CLR,OVC,0.00,WeatherDisplay:10.37,2013-04-15 06:10:00,
2013-04-15 02:15:00,72.2,63.8,29.99,ENE,62,0.0,0.0,75,0.00,CLR,OVC,0.00,WeatherDisplay:10.37,2013-04-15 06:15:00,
2013-04-15 02:20:00,72.2,63.8,29.99,ENE,62,0.0,0.0,75,0.00,CLR,OVC,0.00,WeatherDisplay:10.37,2013-04-15 06:20:00,
2013-04-15 02:25:00,72.2,64.2,29.98,ENE,62,0.0,0.0,76,0.00,CLR,OVC,0.00,WeatherDisplay:10.37,2013-04-15 06:25:00,
2013-04-15 02:30:00,72.3,64.3,29.98,South,169,2.1,2.7,76,0.00,CLR,OVC,0.00,WeatherDisplay:10.37,2013-04-15 06:30:00,
2013-04-15 02:35:00,72.3,64.7,29.98,SE,144,3.2,3.5,77,0.00,CLR,OVC,0.00,WeatherDisplay:10.37,2013-04-15 06:35:00,
2013-04-15 02:40:00,72.2,64.6,29.98,South,175,3.1,3.5,77,0.00,CLR,OVC,0.00,WeatherDisplay:10.37,2013-04-15 06:40:00,
2013-04-15 02:45:00,72.1,64.5,29.98,SSE,161,2.6,3.5,77,0.00,CLR,OVC,0.00,WeatherDisplay:10.37,2013-04-15 06:45:00,
2013-04-15 02:50:00,72.0,64.0,29.98,SSE,165,4.3,5.8,76,0.00,CLR,OVC,0.00,WeatherDisplay:10.37,2013-04-15 06:50:00,
2013-04-15 02:55:00,71.9,63.9,29.98,SSE,167,3.4,4.6,76,0.00,CLR,OVC,0.00,WeatherDisplay:10.37,2013-04-15 06:55:00,
2013-04-15 03:00:00,71.8,63.8,29.97,SE,144,4.1,4.9,76,0.00,CLR,OVC,0.00,WeatherDisplay:10.37,2013-04-15 07:00:00,
2013-04-15 03:05:00,71.8,63.8,29.97,SSE,152,1.5,4.6,76,0.00,CLR,OVC,0.00,WeatherDisplay:10.37,2013-04-15 07:05:00,
2013-04-15 03:41:00,71.5,63.9,29.98,ESE,107,0.0,0.0,77,0.00,CLR,OVC,0.00,WeatherDisplay:10.37,2013-04-15 07:41:00,
2013-04-15 03:43:00,71.4,63.8,29.99,ESE,107,0.0,0.0,77,0.00,CLR,OVC,0.00,WeatherDisplay:10.37,2013-04-15 07:43:00,
2013-04-15 03:48:00,71.4,63.8,29.99,ESE,107,0.0,0.0,77,0.00,CLR,OVC,0.00,WeatherDisplay:10.37,2013-04-15 07:48:00,
2013-04-15 03:49:00,71.3,63.7,29.99,ESE,107,0.0,0.0,77,0.00,CLR,OVC,0.00,WeatherDisplay:10.37,2013-04-15 07:49:00,
2013-04-15 03:50:00,71.3,63.7,29.99,ESE,107,0.0,0.0,77,0.00,CLR,OVC,0.00,WeatherDisplay:10.37,2013-04-15 07:50:00,
2013-04-15 03:55:00,71.2,64.4,29.99,ESE,107,0.0,0.0,79,0.00,CLR,OVC,0.00,WeatherDisplay:10.37,2013-04-15 07:55:00,
2013-04-15 04:00:00,71.2,64.4,29.99,ESE,107,0.0,0.0,79,0.00,CLR,OVC,0.00,WeatherDisplay:10.37,2013-04-15 08:00:00,
2013-04-15 04:05:00,71.1,64.6,29.99,ESE,107,0.0,0.0,80,0.00,CLR,OVC,0.00,WeatherDisplay:10.37,2013-04-15 08:05:00,
2013-04-15 04:10:00,71.3,65.5,29.99,ESE,107,0.0,0.0,82,0.00,CLR,OVC,0.00,WeatherDisplay:10.37,2013-04-15 08:10:00,
2013-04-15 04:15:00,71.2,65.4,29.99,ESE,107,0.0,0.0,82,0.00,CLR,OVC,0.00,WeatherDisplay:10.37,2013-04-15 08:15:00,
2013-04-15 04:21:00,71.0,65.9,29.99,South,189,0.3,1.1,84,0.00,CLR,OVC,0.00,WeatherDisplay:10.37,2013-04-15 08:21:00,
2013-04-15 04:26:00,70.9,65.8,29.99,South,189,0.0,0.0,84,0.00,CLR,OVC,0.00,WeatherDisplay:10.37,2013-04-15 08:26:00,
2013-04-15 04:31:00,71.1,66.0,29.99,South,189,0.0,0.0,84,0.00,CLR,OVC,0.00,WeatherDisplay:10.37,2013-04-15 08:31:00,
2013-04-15 04:36:00,70.9,65.8,29.99,South,191,1.1,2.3,84,0.00,CLR,OVC,0.00,WeatherDisplay:10.37,2013-04-15 08:36:00,
2013-04-15 04:40:00,71.0,65.9,29.99,South,178,2.0,2.3,84,0.00,CLR,OVC,0.00,WeatherDisplay:10.37,2013-04-15 08:40:00,
2013-04-15 04:45:00,70.9,65.5,29.98,SE,143,0.0,0.0,83,0.00,CLR,OVC,0.00,WeatherDisplay:10.37,2013-04-15 08:45:00,
2013-04-15 04:50:00,70.9,65.8,29.98,SSW,196,1.8,2.3,84,0.00,CLR,OVC,0.00,WeatherDisplay:10.37,2013-04-15 08:50:00,
2013-04-15 04:55:00,70.6,65.2,29.97,ESE,114,1.5,2.3,83,0.00,CLR,OVC,0.00,WeatherDisplay:10.37,2013-04-15 08:55:00,
2013-04-15 05:00:00,70.7,65.3,29.96,ENE,62,0.0,0.0,83,0.00,CLR,OVC,0.00,WeatherDisplay:10.37,2013-04-15 09:00:00,
2013-04-15 05:05:00,70.7,65.3,29.97,SSW,206,0.4,2.5,83,0.00,CLR,OVC,0.00,WeatherDisplay:10.37,2013-04-15 09:05:00,
2013-04-15 05:10:00,70.6,65.5,29.97,SW,217,2.4,3.5,84,0.00,CLR,OVC,0.00,WeatherDisplay:10.37,2013-04-15 09:10:00,
2013-04-15 05:15:00,70.6,65.9,29.97,South,191,1.3,2.3,85,0.00,CLR,OVC,0.00,WeatherDisplay:10.37,2013-04-15 09:15:00,
2013-04-15 05:20:00,70.6,65.9,29.97,South,178,2.0,2.3,85,0.00,CLR,OVC,0.00,WeatherDisplay:10.37,2013-04-15 09:20:00,
2013-04-15 05:25:00,70.6,65.9,29.97,South,185,2.2,2.9,85,0.00,CLR,OVC,0.00,WeatherDisplay:10.37,2013-04-15 09:25:00,
2013-04-15 05:30:00,70.5,65.4,29.96,South,186,2.0,3.5,84,0.00,CLR,OVC,0.00,WeatherDisplay:10.37,2013-04-15 09:30:00,
2013-04-15 05:35:00,70.3,65.2,29.96,SSE,154,0.0,0.0,84,0.00,CLR,OVC,0.00,WeatherDisplay:10.37,2013-04-15 09:35:00,
2013-04-15 05:40:00,70.3,65.2,29.96,SSW,199,0.6,2.8,84,0.00,CLR,OVC,0.00,WeatherDisplay:10.37,2013-04-15 09:40:00,
2013-04-15 05:45:00,70.3,65.2,29.97,South,191,3.5,4.6,84,0.00,CLR,OVC,0.00,WeatherDisplay:10.37,2013-04-15 09:45:00,
2013-04-15 05:50:00,70.1,65.0,29.97,South,188,2.5,3.5,84,0.00,CLR,OVC,0.00,WeatherDisplay:10.37,2013-04-15 09:50:00,
2013-04-15 05:55:00,70.0,64.9,29.97,SSW,196,2.7,4.6,84,0.00,CLR,OVC,0.00,WeatherDisplay:10.37,2013-04-15 09:55:00,
2013-04-15 06:00:00,70.1,65.0,29.97,South,178,2.9,3.5,84,0.00,CLR,OVC,0.00,WeatherDisplay:10.37,2013-04-15 10:00:00,
2013-04-15 06:05:00,70.2,65.1,29.97,South,186,2.3,3.5,84,0.00,CLR,OVC,0.00,WeatherDisplay:10.37,2013-04-15 10:05:00,
2013-04-15 06:10:00,70.1,65.0,29.97,South,191,4.8,5.8,84,0.00,CLR,OVC,0.00,WeatherDisplay:10.37,2013-04-15 10:10:00,
2013-04-15 06:15:00,70.0,65.3,29.96,South,181,4.2,5.8,85,0.00,CLR,OVC,0.00,WeatherDisplay:10.37,2013-04-15 10:15:00,
2013-04-15 06:20:00,70.0,65.3,29.96,SSW,195,4.4,6.9,85,0.00,CLR,OVC,0.00,WeatherDisplay:10.37,2013-04-15 10:20:00,
2013-04-15 06:25:00,69.9,64.8,29.96,South,174,5.7,6.9,84,0.00,CLR,OVC,0.00,WeatherDisplay:10.37,2013-04-15 10:25:00,
2013-04-15 06:30:00,69.8,64.7,29.96,SSE,164,7.0,8.1,84,0.00,CLR,OVC,0.00,WeatherDisplay:10.37,2013-04-15 10:30:00,
2013-04-15 06:35:00,69.9,64.8,29.95,South,176,7.4,9.6,84,0.00,CLR,OVC,0.00,WeatherDisplay:10.37,2013-04-15 10:35:00,
2013-04-15 06:40:00,69.9,64.5,29.95,SSE,148,6.4,8.1,83,0.00,CLR,OVC,0.00,WeatherDisplay:10.37,2013-04-15 10:40:00,
2013-04-15 06:45:00,70.0,64.2,29.96,South,175,7.0,10.4,82,0.00,CLR,OVC,0.00,WeatherDisplay:10.37,2013-04-15 10:45:00,
2013-04-15 06:50:00,70.2,64.4,29.96,SSW,195,4.8,6.9,82,0.00,CLR,OVC,0.00,WeatherDisplay:10.37,2013-04-15 10:50:00,
2013-04-15 06:55:00,70.5,64.7,29.96,SSE,157,7.4,9.2,82,0.00,CLR,OVC,0.00,WeatherDisplay:10.37,2013-04-15 10:55:00,
2013-04-15 07:01:00,70.5,64.7,29.97,South,169,3.8,5.8,82,0.00,CLR,OVC,0.00,WeatherDisplay:10.37,2013-04-15 11:01:00,
2013-04-15 07:06:00,70.5,64.7,29.97,SSW,192,5.5,6.9,82,0.00,CLR,OVC,0.00,WeatherDisplay:10.37,2013-04-15 11:06:00,
2013-04-15 07:11:00,70.5,64.7,29.97,SSW,203,4.4,6.9,82,0.00,CLR,OVC,0.00,WeatherDisplay:10.37,2013-04-15 11:11:00,
2013-04-15 07:17:00,70.6,64.5,29.98,SSE,164,5.5,6.9,81,0.00,CLR,OVC,0.00,WeatherDisplay:10.37,2013-04-15 11:17:00,
2013-04-15 07:22:00,70.6,64.5,29.98,SSW,193,3.7,5.8,81,0.00,CLR,OVC,0.00,WeatherDisplay:10.37,2013-04-15 11:22:00,
2013-04-15 07:27:00,70.8,64.7,29.98,SSW,195,3.1,5.8,81,0.00,CLR,OVC,0.00,WeatherDisplay:10.37,2013-04-15 11:27:00,
2013-04-15 07:32:00,70.9,65.1,29.98,South,184,6.2,8.1,82,0.00,CLR,OVC,0.00,WeatherDisplay:10.37,2013-04-15 11:32:00,
2013-04-15 07:37:00,70.9,65.1,29.99,SSW,195,3.6,5.8,82,0.00,CLR,OVC,0.00,WeatherDisplay:10.37,2013-04-15 11:37:00,
2013-04-15 07:42:00,70.8,65.0,29.99,SSW,200,5.2,6.9,82,0.00,CLR,OVC,0.00,WeatherDisplay:10.37,2013-04-15 11:42:00,
2013-04-15 07:47:00,71.0,65.2,29.99,South,191,5.6,6.9,82,0.00,CLR,OVC,0.00,WeatherDisplay:10.37,2013-04-15 11:47:00,
2013-04-15 07:52:00,71.3,65.5,29.99,SSW,193,5.3,6.9,82,0.00,CLR,OVC,0.00,WeatherDisplay:10.37,2013-04-15 11:52:00,
2013-04-15 07:57:00,71.5,65.4,29.99,SSW,205,3.6,6.9,81,0.00,CLR,OVC,0.00,WeatherDisplay:10.37,2013-04-15 11:57:00,
2013-04-15 08:03:00,71.6,65.5,29.99,South,169,7.7,8.1,81,0.00,CLR,OVC,0.00,WeatherDisplay:10.37,2013-04-15 12:03:00,
2013-04-15 08:08:00,71.8,65.7,29.99,SSE,148,5.2,7.6,81,0.00,CLR,OVC,0.00,WeatherDisplay:10.37,2013-04-15 12:08:00,
2013-04-15 08:13:00,72.1,65.9,29.99,SSE,165,5.1,8.1,81,0.00,CLR,OVC,0.00,WeatherDisplay:10.37,2013-04-15 12:13:00,
2013-04-15 08:19:00,72.4,66.2,29.99,South,171,5.3,6.9,81,0.00,CLR,OVC,0.00,WeatherDisplay:10.37,2013-04-15 12:19:00,
2013-04-15 08:24:00,72.4,66.2,29.99,SSW,198,6.7,9.2,81,0.00,CLR,OVC,0.00,WeatherDisplay:10.37,2013-04-15 12:24:00,
2013-04-15 08:29:00,72.6,66.4,29.99,South,181,8.6,11.8,81,0.00,CLR,OVC,0.00,WeatherDisplay:10.37,2013-04-15 12:29:00,
2013-04-15 08:34:00,72.7,66.2,29.98,South,182,8.2,12.7,80,0.00,CLR,OVC,0.00,WeatherDisplay:10.37,2013-04-15 12:34:00,
2013-04-15 08:39:00,73.0,66.5,29.98,East,93,2.0,4.6,80,0.00,CLR,OVC,0.00,WeatherDisplay:10.37,2013-04-15 12:39:00,
2013-04-15 08:44:00,73.2,66.7,29.99,South,174,4.8,8.1,80,0.00,CLR,OVC,0.00,WeatherDisplay:10.37,2013-04-15 12:44:00,
2013-04-15 08:49:00,73.6,67.0,29.99,SSW,206,5.5,8.1,80,0.00,CLR,OVC,0.00,WeatherDisplay:10.37,2013-04-15 12:49:00,
2013-04-15 08:54:00,73.8,67.2,29.98,South,179,6.0,9.6,80,0.00,CLR,OVC,0.00,WeatherDisplay:10.37,2013-04-15 12:54:00,
2013-04-15 08:59:00,74.1,67.5,29.98,South,182,6.9,9.2,80,0.00,CLR,OVC,0.00,WeatherDisplay:10.37,2013-04-15 12:59:00,
2013-04-15 09:04:00,74.2,67.3,29.98,South,182,8.8,11.5,79,0.00,CLR,OVC,0.00,WeatherDisplay:10.37,2013-04-15 13:04:00,
2013-04-15 09:09:00,74.3,67.4,29.98,SSE,160,8.0,11.5,79,0.00,CLR,OVC,0.00,WeatherDisplay:10.37,2013-04-15 13:09:00,
2013-04-15 09:14:00,74.3,67.4,29.98,SSE,152,8.7,10.4,79,0.00,CLR,OVC,0.00,WeatherDisplay:10.37,2013-04-15 13:14:00,
2013-04-15 09:19:00,74.5,67.6,29.99,SSW,209,5.7,9.2,79,0.00,CLR,OVC,0.00,WeatherDisplay:10.37,2013-04-15 13:19:00,
2013-04-15 09:24:00,74.8,67.5,29.99,SSW,200,5.5,8.1,78,0.00,CLR,OVC,0.00,WeatherDisplay:10.37,2013-04-15 13:24:00,
2013-04-15 09:29:00,75.2,67.9,29.99,SSE,162,6.6,10.4,78,0.00,CLR,OVC,0.00,WeatherDisplay:10.37,2013-04-15 13:29:00,
2013-04-15 09:34:00,75.3,67.6,29.99,SE,144,5.8,7.0,77,0.00,CLR,OVC,0.00,WeatherDisplay:10.37,2013-04-15 13:34:00,
2013-04-15 09:39:00,75.4,67.3,30.00,South,191,9.1,10.4,76,0.00,CLR,OVC,0.00,WeatherDisplay:10.37,2013-04-15 13:39:00,
2013-04-15 09:44:00,75.4,67.3,30.00,South,176,7.5,9.2,76,0.00,CLR,OVC,0.00,WeatherDisplay:10.37,2013-04-15 13:44:00,
2013-04-15 09:49:00,75.7,67.6,30.00,South,172,5.2,6.9,76,0.00,CLR,OVC,0.00,WeatherDisplay:10.37,2013-04-15 13:49:00,
2013-04-15 09:54:00,76.3,68.2,30.00,South,169,6.0,10.1,76,0.00,CLR,OVC,0.00,WeatherDisplay:10.37,2013-04-15 13:54:00,
2013-04-15 09:59:00,76.8,67.9,30.00,South,185,6.0,8.1,74,0.00,CLR,OVC,0.00,WeatherDisplay:10.37,2013-04-15 13:59:00,
2013-04-15 10:04:00,77.2,67.9,30.00,South,176,6.0,6.9,73,0.00,CLR,OVC,0.00,WeatherDisplay:10.37,2013-04-15 14:04:00,
2013-04-15 10:09:00,77.5,67.8,30.00,South,178,6.1,6.1,72,0.00,CLR,OVC,0.00,WeatherDisplay:10.37,2013-04-15 14:09:00,
2013-04-15 10:15:00,77.9,68.2,30.00,SSE,163,6.0,9.0,72,0.00,CLR,OVC,0.00,WeatherDisplay:10.37,2013-04-15 14:15:00,
2013-04-15 10:20:00,78.2,68.4,30.00,SSE,147,5.1,6.9,72,0.00,CLR,OVC,0.00,WeatherDisplay:10.37,2013-04-15 14:20:00,
2013-04-15 10:25:00,78.8,68.6,30.00,South,189,4.1,4.6,71,0.00,CLR,OVC,0.00,WeatherDisplay:10.37,2013-04-15 14:25:00,
2013-04-15 10:30:00,79.0,68.4,30.00,SSE,148,6.5,8.1,70,0.00,CLR,OVC,0.00,WeatherDisplay:10.37,2013-04-15 14:30:00,
2013-04-15 10:35:00,79.5,68.4,30.00,SE,124,5.9,8.1,69,0.00,CLR,OVC,0.00,WeatherDisplay:10.37,2013-04-15 14:35:00,
2013-04-15 10:40:00,80.1,68.2,30.00,SSE,152,5.7,8.1,67,0.00,CLR,OVC,0.00,WeatherDisplay:10.37,2013-04-15 14:40:00,
2013-04-15 10:45:00,80.3,67.5,30.01,SSE,155,5.6,8.1,65,0.00,CLR,OVC,0.00,WeatherDisplay:10.37,2013-04-15 14:45:00,
2013-04-15 10:50:00,80.6,67.3,30.01,ESE,117,5.0,8.1,64,0.00,CLR,OVC,0.00,WeatherDisplay:10.37,2013-04-15 14:50:00,
2013-04-15 10:55:00,81.0,67.2,30.02,SSE,158,3.0,4.6,63,0.00,CLR,OVC,0.00,WeatherDisplay:10.37,2013-04-15 14:55:00,
2013-04-15 11:00:00,81.4,66.7,30.02,SE,136,2.4,3.5,61,0.00,CLR,OVC,0.00,WeatherDisplay:10.37,2013-04-15 15:00:00,
2013-04-15 11:05:00,81.6,67.3,30.02,SE,138,1.8,4.6,62,0.00,CLR,OVC,0.00,WeatherDisplay:10.37,2013-04-15 15:05:00,
2013-04-15 11:10:00,81.8,67.5,30.02,South,179,2.6,3.5,62,0.00,CLR,OVC,0.00,WeatherDisplay:10.37,2013-04-15 15:10:00,
2013-04-15 11:15:00,82.0,67.2,30.03,South,189,2.7,5.8,61,0.00,CLR,OVC,0.00,WeatherDisplay:10.37,2013-04-15 15:15:00,
2013-04-15 11:20:00,82.3,66.0,30.03,SE,124,0.0,1.1,58,0.00,CLR,OVC,0.00,WeatherDisplay:10.37,2013-04-15 15:20:00,
2013-04-15 11:26:00,82.4,66.1,30.03,NW,319,2.8,3.5,58,0.00,CLR,OVC,0.00,WeatherDisplay:10.37,2013-04-15 15:26:00,
2013-04-15 11:31:00,82.9,67.6,30.03,North,3,6.8,10.4,60,0.00,CLR,OVC,0.00,WeatherDisplay:10.37,2013-04-15 15:31:00,
2013-04-15 11:37:00,83.0,68.2,30.03,North,360,6.2,9.2,61,0.00,CLR,OVC,0.00,WeatherDisplay:10.37,2013-04-15 15:37:00,
2013-04-15 11:42:00,82.9,68.5,30.03,WNW,291,8.5,12.7,62,0.00,CLR,OVC,0.00,WeatherDisplay:10.37,2013-04-15 15:42:00,
2013-04-15 11:47:00,82.8,68.4,30.04,NW,313,7.6,13.8,62,0.00,CLR,OVC,0.00,WeatherDisplay:10.37,2013-04-15 15:47:00,
2013-04-15 11:52:00,82.7,68.4,30.04,NW,305,6.5,12.7,62,0.00,CLR,OVC,0.00,WeatherDisplay:10.37,2013-04-15 15:52:00,
2013-04-15 11:57:00,82.7,67.9,30.04,NW,322,2.4,5.8,61,0.00,CLR,OVC,0.00,WeatherDisplay:10.37,2013-04-15 15:57:00,
2013-04-15 12:02:00,82.5,68.2,30.04,NW,326,4.9,11.5,62,0.00,CLR,OVC,0.00,WeatherDisplay:10.37,2013-04-15 16:02:00,
2013-04-15 12:07:00,82.5,67.7,30.04,West,275,5.3,12.7,61,0.00,CLR,OVC,0.00,WeatherDisplay:10.37,2013-04-15 16:07:00,
2013-04-15 12:12:00,82.7,68.8,30.04,NNW,336,7.5,11.5,63,0.00,CLR,OVC,0.00,WeatherDisplay:10.37,2013-04-15 16:12:00,
2013-04-15 12:17:00,83.0,68.2,30.04,WNW,298,5.3,9.1,61,0.00,CLR,OVC,0.00,WeatherDisplay:10.37,2013-04-15 16:17:00,
2013-04-15 12:23:00,83.1,68.3,30.04,NW,308,7.5,7.6,61,0.00,CLR,OVC,0.00,WeatherDisplay:10.37,2013-04-15 16:23:00,
2013-04-15 12:28:00,82.9,68.5,30.04,NNW,336,4.0,6.9,62,0.00,CLR,OVC,0.00,WeatherDisplay:10.37,2013-04-15 16:28:00,
2013-04-15 12:33:00,82.9,68.5,30.04,North,352,4.8,6.9,62,0.00,CLR,OVC,0.00,WeatherDisplay:10.37,2013-04-15 16:33:00,
2013-04-15 12:38:00,83.1,68.3,30.04,WNW,299,3.3,6.8,61,0.00,CLR,OVC,0.00,WeatherDisplay:10.37,2013-04-15 16:38:00,
2013-04-15 12:43:00,83.2,67.9,30.03,North,353,4.0,6.9,60,0.00,CLR,OVC,0.00,WeatherDisplay:10.37,2013-04-15 16:43:00,
2013-04-15 12:48:00,83.9,68.5,30.03,NW,306,4.8,6.9,60,0.00,CLR,OVC,0.00,WeatherDisplay:10.37,2013-04-15 16:48:00,
2013-04-15 12:53:00,84.0,68.1,30.03,NNW,340,6.1,10.4,59,0.00,CLR,OVC,0.00,WeatherDisplay:10.37,2013-04-15 16:53:00,
2013-04-15 12:58:00,84.0,68.6,30.03,NW,326,6.4,9.2,60,0.00,CLR,OVC,0.00,WeatherDisplay:10.37,2013-04-15 16:58:00,
2013-04-15 13:03:00,84.5,68.6,30.03,West,277,6.9,10.4,59,0.00,CLR,OVC,0.00,WeatherDisplay:10.37,2013-04-15 17:03:00,
2013-04-15 13:08:00,84.4,69.0,30.03,NW,315,3.9,5.8,60,0.00,CLR,OVC,0.00,WeatherDisplay:10.37,2013-04-15 17:08:00,
2013-04-15 13:14:00,85.1,68.2,30.03,NNW,339,2.3,4.6,57,0.00,CLR,OVC,0.00,WeatherDisplay:10.37,2013-04-15 17:14:00,
2013-04-15 13:19:00,83.9,67.5,30.03,West,264,5.6,6.9,58,0.00,CLR,OVC,0.00,WeatherDisplay:10.37,2013-04-15 17:19:00,
2013-04-15 13:21:00,84.3,68.9,30.03,NNW,328,4.2,6.9,60,0.00,CLR,OVC,0.00,WeatherDisplay:10.37,2013-04-15 17:21:00,
2013-04-15 13:22:00,84.6,69.2,30.03,NNW,337,5.9,10.4,60,0.00,CLR,OVC,0.00,WeatherDisplay:10.37,2013-04-15 17:22:00,
2013-04-15 13:25:00,85.1,69.7,30.03,NW,306,6.1,10.4,60,0.00,CLR,OVC,0.00,WeatherDisplay:10.37,2013-04-15 17:25:00,
2013-04-15 13:30:00,85.3,69.3,30.03,NW,326,3.9,6.9,59,0.00,CLR,OVC,0.00,WeatherDisplay:10.37,2013-04-15 17:30:00,
2013-04-15 13:35:00,83.7,68.3,30.02,WNW,282,3.4,6.0,60,0.00,CLR,OVC,0.00,WeatherDisplay:10.37,2013-04-15 17:35:00,
2013-04-15 13:40:00,83.8,68.9,30.02,West,268,2.7,5.8,61,0.00,CLR,OVC,0.00,WeatherDisplay:10.37,2013-04-15 17:40:00,
2013-04-15 13:45:00,85.2,69.3,30.02,NNW,342,3.8,5.8,59,0.00,CLR,OVC,0.00,WeatherDisplay:10.37,2013-04-15 17:45:00,
2013-04-15 13:50:00,85.7,68.7,30.02,West,271,4.2,6.9,57,0.00,CLR,OVC,0.00,WeatherDisplay:10.37,2013-04-15 17:50:00,
2013-04-15 13:55:00,85.3,68.8,30.02,NW,315,5.2,8.1,58,0.00,CLR,OVC,0.00,WeatherDisplay:10.37,2013-04-15 17:55:00,
2013-04-15 14:00:00,85.9,69.4,30.02,NW,316,5.6,8.1,58,0.00,CLR,OVC,0.00,WeatherDisplay:10.37,2013-04-15 18:00:00,
2013-04-15 14:05:00,86.0,68.5,30.02,NW,305,3.6,6.9,56,0.00,CLR,OVC,0.00,WeatherDisplay:10.37,2013-04-15 18:05:00,
2013-04-15 14:10:00,85.9,69.4,30.02,NNW,344,2.8,6.9,58,0.00,CLR,OVC,0.00,WeatherDisplay:10.37,2013-04-15 18:10:00,
2013-04-15 14:15:00,86.4,68.3,30.02,WNW,285,2.7,9.2,55,0.00,CLR,OVC,0.00,WeatherDisplay:10.37,2013-04-15 18:15:00,
2013-04-15 14:20:00,87.6,68.9,30.02,West,281,6.4,8.1,54,0.00,CLR,OVC,0.00,WeatherDisplay:10.37,2013-04-15 18:20:00,
2013-04-15 14:25:00,88.1,69.4,30.01,NW,318,3.6,5.8,54,0.00,CLR,OVC,0.00,WeatherDisplay:10.37,2013-04-15 18:25:00,
2013-04-15 14:29:00,88.3,69.0,30.02,WNW,285,5.4,9.2,53,0.00,CLR,OVC,0.00,WeatherDisplay:10.37,2013-04-15 18:29:00,
2013-04-15 14:34:00,87.9,69.2,30.02,North,3,7.2,11.5,54,0.00,CLR,OVC,0.00,WeatherDisplay:10.37,2013-04-15 18:34:00,
2013-04-15 14:39:00,86.8,68.2,30.02,NNW,329,5.8,8.1,54,0.00,CLR,OVC,0.00,WeatherDisplay:10.37,2013-04-15 18:39:00,
2013-04-15 14:44:00,86.3,69.3,30.02,NW,316,6.7,10.4,57,0.00,CLR,OVC,0.00,WeatherDisplay:10.37,2013-04-15 18:44:00,
2013-04-15 14:49:00,86.7,69.1,30.02,NW,305,7.6,12.7,56,0.00,CLR,OVC,0.00,WeatherDisplay:10.37,2013-04-15 18:49:00,
2013-04-15 14:54:00,86.7,69.1,30.01,NNW,329,6.3,11.5,56,0.00,CLR,OVC,0.00,WeatherDisplay:10.37,2013-04-15 18:54:00,
2013-04-15 14:59:00,86.7,68.1,30.01,NW,316,4.9,5.8,54,0.00,CLR,OVC,0.00,WeatherDisplay:10.37,2013-04-15 18:59:00,
2013-04-15 15:04:00,87.3,69.2,30.01,NW,312,5.8,9.2,55,0.00,CLR,OVC,0.00,WeatherDisplay:10.37,2013-04-15 19:04:00,
2013-04-15 15:09:00,87.2,69.1,30.00,NNE,14,4.7,9.2,55,0.00,CLR,OVC,0.00,WeatherDisplay:10.37,2013-04-15 19:09:00,
2013-04-15 15:14:00,86.7,69.6,30.00,NW,313,5.4,8.1,57,0.00,CLR,OVC,0.00,WeatherDisplay:10.37,2013-04-15 19:14:00,
2013-04-15 15:19:00,86.6,70.1,30.00,West,274,5.7,10.4,58,0.00,CLR,OVC,0.00,WeatherDisplay:10.37,2013-04-15 19:19:00,
2013-04-15 15:24:00,87.4,69.3,30.00,North,360,5.9,9.2,55,0.00,CLR,OVC,0.00,WeatherDisplay:10.37,2013-04-15 19:24:00,
2013-04-15 15:29:00,88.3,69.5,30.00,NW,309,2.5,8.1,54,0.00,CLR,OVC,0.00,WeatherDisplay:10.37,2013-04-15 19:29:00,
2013-04-15 15:34:00,88.6,69.3,30.00,NW,319,4.0,9.2,53,0.00,CLR,OVC,0.00,WeatherDisplay:10.37,2013-04-15 19:34:00,
2013-04-15 15:39:00,89.2,69.3,30.00,WNW,302,6.3,10.4,52,0.00,CLR,OVC,0.00,WeatherDisplay:10.37,2013-04-15 19:39:00,
2013-04-15 15:45:00,89.6,69.6,30.00,NW,326,6.0,10.0,52,0.00,CLR,OVC,0.00,WeatherDisplay:10.37,2013-04-15 19:45:00,
2013-04-15 15:51:00,86.8,69.2,30.00,West,268,4.0,6.9,56,0.00,CLR,OVC,0.00,WeatherDisplay:10.37,2013-04-15 19:51:00,
2013-04-15 15:57:00,87.2,69.1,29.99,North,349,4.8,6.9,55,0.00,CLR,OVC,0.00,WeatherDisplay:10.37,2013-04-15 19:57:00,
2013-04-15 15:58:00,87.5,69.9,29.99,North,6,5.0,7.1,56,0.00,CLR,OVC,0.00,WeatherDisplay:10.37,2013-04-15 19:58:00,
2013-04-15 16:02:00,88.0,68.7,29.99,NNW,342,5.7,9.2,53,0.00,CLR,OVC,0.00,WeatherDisplay:10.37,2013-04-15 20:02:00,
2013-04-15 16:07:00,88.9,68.4,29.99,NNW,344,3.1,3.5,51,0.00,CLR,OVC,0.00,WeatherDisplay:10.37,2013-04-15 20:07:00,
2013-04-15 16:12:00,89.7,69.2,29.99,NNE,14,3.4,6.4,51,0.00,CLR,OVC,0.00,WeatherDisplay:10.37,2013-04-15 20:12:00,
2013-04-15 16:17:00,90.6,69.4,29.99,NNW,328,3.7,5.8,50,0.00,CLR,OVC,0.00,WeatherDisplay:10.37,2013-04-15 20:17:00,
2013-04-15 16:22:00,90.8,67.2,29.99,NW,304,8.0,10.4,46,0.00,CLR,OVC,0.00,WeatherDisplay:10.37,2013-04-15 20:22:00,
2013-04-15 16:27:00,90.4,68.0,29.99,NW,311,5.2,8.1,48,0.00,CLR,OVC,0.00,WeatherDisplay:10.37,2013-04-15 20:27:00,
2013-04-15 16:32:00,90.6,68.2,29.99,NW,318,5.4,8.1,48,0.00,CLR,OVC,0.00,WeatherDisplay:10.37,2013-04-15 20:32:00,
2013-04-15 16:37:00,90.2,67.9,29.99,NNW,330,5.1,9.2,48,0.00,CLR,OVC,0.00,WeatherDisplay:10.37,2013-04-15 20:37:00,
2013-04-15 16:42:00,90.0,67.1,29.99,WNW,282,5.4,8.1,47,0.00,CLR,OVC,0.00,WeatherDisplay:10.37,2013-04-15 20:42:00,
2013-04-15 16:47:00,90.1,67.8,29.99,NNE,16,4.6,10.4,48,0.00,CLR,OVC,0.00,WeatherDisplay:10.37,2013-04-15 20:47:00,
2013-04-15 16:52:00,90.4,67.4,29.99,NW,319,4.7,8.1,47,0.00,CLR,OVC,0.00,WeatherDisplay:10.37,2013-04-15 20:52:00,
2013-04-15 16:57:00,90.3,67.3,29.99,NNW,328,8.2,10.4,47,0.00,CLR,OVC,0.00,WeatherDisplay:10.37,2013-04-15 20:57:00,
2013-04-15 17:02:00,89.8,68.1,29.99,NNE,16,2.7,5.8,49,0.00,CLR,OVC,0.00,WeatherDisplay:10.37,2013-04-15 21:02:00,
2013-04-15 17:07:00,90.1,67.8,30.00,WNW,289,3.5,8.1,48,0.00,CLR,OVC,0.00,WeatherDisplay:10.37,2013-04-15 21:07:00,
2013-04-15 17:12:00,89.9,67.6,30.00,North,356,2.9,6.2,48,0.00,CLR,OVC,0.00,WeatherDisplay:10.37,2013-04-15 21:12:00,
2013-04-15 17:17:00,90.2,66.6,30.00,NNW,340,4.6,9.2,46,0.00,CLR,OVC,0.00,WeatherDisplay:10.37,2013-04-15 21:17:00,
2013-04-15 17:22:00,90.2,67.2,30.00,NW,311,4.5,9.2,47,0.00,CLR,OVC,0.00,WeatherDisplay:10.37,2013-04-15 21:22:00,
2013-04-15 17:27:00,89.8,67.5,30.00,NW,322,4.3,8.1,48,0.00,CLR,OVC,0.00,WeatherDisplay:10.37,2013-04-15 21:27:00,
2013-04-15 17:32:00,89.9,67.0,30.00,West,274,1.8,4.6,47,0.00,CLR,OVC,0.00,WeatherDisplay:10.37,2013-04-15 21:32:00,
2013-04-15 17:37:00,88.3,67.3,30.00,North,359,4.7,9.2,50,0.00,CLR,OVC,0.00,WeatherDisplay:10.37,2013-04-15 21:37:00,
2013-04-15 17:42:00,88.1,67.1,30.00,WNW,299,6.9,11.5,50,0.00,CLR,OVC,0.00,WeatherDisplay:10.37,2013-04-15 21:42:00,
2013-04-15 17:47:00,88.0,67.0,30.00,NNW,329,5.8,9.2,50,0.00,CLR,OVC,0.00,WeatherDisplay:10.37,2013-04-15 21:47:00,
2013-04-15 17:52:00,88.6,66.4,30.00,NW,308,4.7,8.3,48,0.00,CLR,OVC,0.00,WeatherDisplay:10.37,2013-04-15 21:52:00,
2013-04-15 17:57:00,88.0,66.4,30.00,NW,309,4.8,8.1,49,0.00,CLR,OVC,0.00,WeatherDisplay:10.37,2013-04-15 21:57:00,
2013-04-15 18:02:00,88.3,67.3,30.00,NNW,333,1.9,5.8,50,0.00,CLR,OVC,0.00,WeatherDisplay:10.37,2013-04-15 22:02:00,
2013-04-15 18:07:00,88.9,67.3,30.00,NW,319,3.6,6.9,49,0.00,CLR,OVC,0.00,WeatherDisplay:10.37,2013-04-15 22:07:00,
2013-04-15 18:12:00,89.3,67.0,30.00,WNW,295,1.7,3.5,48,0.00,CLR,OVC,0.00,WeatherDisplay:10.37,2013-04-15 22:12:00,
2013-04-15 18:17:00,88.4,66.8,30.00,NNW,332,5.7,9.2,49,0.00,CLR,OVC,0.00,WeatherDisplay:10.37,2013-04-15 22:17:00,
2013-04-15 18:22:00,88.1,67.1,30.00,NNW,330,5.8,8.1,50,0.00,CLR,OVC,0.00,WeatherDisplay:10.37,2013-04-15 22:22:00,
2013-04-15 18:27:00,87.8,67.4,30.00,WNW,291,5.3,10.4,51,0.00,CLR,OVC,0.00,WeatherDisplay:10.37,2013-04-15 22:27:00,
2013-04-15 18:32:00,87.0,67.2,30.00,NW,322,4.1,8.1,52,0.00,CLR,OVC,0.00,WeatherDisplay:10.37,2013-04-15 22:32:00,
2013-04-15 18:37:00,85.7,67.1,30.00,NNW,339,4.0,9.2,54,0.00,CLR,OVC,0.00,WeatherDisplay:10.37,2013-04-15 22:37:00,
2013-04-15 18:42:00,84.9,68.0,30.01,North,356,2.2,4.6,57,0.00,CLR,OVC,0.00,WeatherDisplay:10.37,2013-04-15 22:42:00,
2013-04-15 18:47:00,84.6,68.7,30.01,NNW,336,1.6,5.8,59,0.00,CLR,OVC,0.00,WeatherDisplay:10.37,2013-04-15 22:47:00,
2013-04-15 18:52:00,84.5,67.6,30.01,NNW,330,5.2,7.2,57,0.00,CLR,OVC,0.00,WeatherDisplay:10.37,2013-04-15 22:52:00,
2013-04-15 18:57:00,84.2,67.3,30.01,NNW,330,3.4,8.1,57,0.00,CLR,OVC,0.00,WeatherDisplay:10.37,2013-04-15 22:57:00,
2013-04-15 19:02:00,83.9,68.0,30.01,NW,325,2.8,7.5,59,0.00,CLR,OVC,0.00,WeatherDisplay:10.37,2013-04-15 23:02:00,
2013-04-15 19:07:00,83.3,67.5,30.01,NW,320,3.9,5.8,59,0.00,CLR,OVC,0.00,WeatherDisplay:10.37,2013-04-15 23:07:00,
2013-04-15 19:12:00,82.8,67.0,30.01,WNW,295,4.2,5.8,59,0.00,CLR,OVC,0.00,WeatherDisplay:10.37,2013-04-15 23:12:00,
2013-04-15 19:17:00,82.5,67.2,30.01,North,360,4.0,5.8,60,0.00,CLR,OVC,0.00,WeatherDisplay:10.37,2013-04-15 23:17:00,
2013-04-15 19:22:00,82.4,67.1,30.01,NNW,328,2.9,5.8,60,0.00,CLR,OVC,0.00,WeatherDisplay:10.37,2013-04-15 23:22:00,
2013-04-15 19:27:00,82.2,67.4,30.01,NW,309,2.7,5.8,61,0.00,CLR,OVC,0.00,WeatherDisplay:10.37,2013-04-15 23:27:00,
2013-04-15 19:32:00,81.9,67.6,30.02,North,354,4.0,6.9,62,0.00,CLR,OVC,0.00,WeatherDisplay:10.37,2013-04-15 23:32:00,
2013-04-15 19:37:00,81.7,67.4,30.02,NNW,339,3.8,6.9,62,0.00,CLR,OVC,0.00,WeatherDisplay:10.37,2013-04-15 23:37:00,
2013-04-15 19:42:00,81.4,67.1,30.02,NW,318,4.1,4.6,62,0.00,CLR,OVC,0.00,WeatherDisplay:10.37,2013-04-15 23:42:00,
2013-04-15 19:47:00,81.2,66.9,30.02,NNW,330,4.5,9.2,62,0.00,CLR,OVC,0.00,WeatherDisplay:10.37,2013-04-15 23:47:00,
2013-04-15 19:52:00,80.7,66.5,30.03,North,360,4.4,6.9,62,0.00,CLR,OVC,0.00,WeatherDisplay:10.37,2013-04-15 23:52:00,
2013-04-15 19:57:00,80.4,66.2,30.03,NW,322,2.2,6.9,62,0.00,CLR,OVC,0.00,WeatherDisplay:10.37,2013-04-15 23:57:00,
2013-04-15 20:02:00,80.3,66.6,30.03,NW,326,0.6,2.3,63,0.00,CLR,OVC,0.00,WeatherDisplay:10.37,2013-04-16 00:02:00,
2013-04-15 20:07:00,80.4,67.1,30.03,NNW,343,0.0,2.3,64,0.00,CLR,OVC,0.00,WeatherDisplay:10.37,2013-04-16 00:07:00,
2013-04-15 20:12:00,80.3,67.0,30.03,NW,308,3.1,4.6,64,0.00,CLR,OVC,0.00,WeatherDisplay:10.37,2013-04-16 00:12:00,
2013-04-15 20:17:00,80.2,66.9,30.03,NW,313,2.1,3.5,64,0.00,CLR,OVC,0.00,WeatherDisplay:10.37,2013-04-16 00:17:00,
2013-04-15 20:22:00,80.1,66.8,30.03,NNW,330,1.6,4.6,64,0.00,CLR,OVC,0.00,WeatherDisplay:10.37,2013-04-16 00:22:00,
2013-04-15 20:27:00,80.0,66.7,30.04,NW,306,4.7,5.8,64,0.00,CLR,OVC,0.00,WeatherDisplay:10.37,2013-04-16 00:27:00,
2013-04-15 20:32:00,79.8,67.0,30.04,NNE,14,2.3,2.3,65,0.00,CLR,OVC,0.00,WeatherDisplay:10.37,2013-04-16 00:32:00,
2013-04-15 20:37:00,79.7,66.9,30.04,NNW,329,0.6,2.1,65,0.00,CLR,OVC,0.00,WeatherDisplay:10.37,2013-04-16 00:37:00,
2013-04-15 20:42:00,79.4,66.6,30.05,NW,311,1.7,3.5,65,0.00,CLR,OVC,0.00,WeatherDisplay:10.37,2013-04-16 00:42:00,
2013-04-15 20:47:00,79.4,67.0,30.05,NW,315,1.1,3.5,66,0.00,CLR,OVC,0.00,WeatherDisplay:10.37,2013-04-16 00:47:00,
2013-04-15 20:52:00,79.4,67.0,30.05,NNW,339,0.8,2.3,66,0.00,CLR,OVC,0.00,WeatherDisplay:10.37,2013-04-16 00:52:00,
2013-04-15 20:57:00,79.4,67.5,30.05,WNW,282,0.0,1.1,67,0.00,CLR,OVC,0.00,WeatherDisplay:10.37,2013-04-16 00:57:00,
2013-04-15 21:02:00,79.3,67.0,30.06,WNW,294,0.3,0.4,66,0.00,CLR,OVC,0.00,WeatherDisplay:10.37,2013-04-16 01:02:00,
2013-04-15 21:07:00,79.2,66.9,30.06,WNW,294,0.0,0.0,66,0.00,CLR,OVC,0.00,WeatherDisplay:10.37,2013-04-16 01:07:00,
2013-04-15 21:12:00,79.3,67.4,30.06,NNW,330,0.3,2.3,67,0.00,CLR,OVC,0.00,WeatherDisplay:10.37,2013-04-16 01:12:00,
2013-04-15 21:17:00,79.2,67.3,30.06,North,3,0.3,2.3,67,0.00,CLR,OVC,0.00,WeatherDisplay:10.37,2013-04-16 01:17:00,
2013-04-15 21:22:00,79.1,67.6,30.06,NNW,333,0.0,0.0,68,0.00,CLR,OVC,0.00,WeatherDisplay:10.37,2013-04-16 01:22:00,
2013-04-15 21:27:00,79.1,67.2,30.07,North,354,0.0,1.1,67,0.00,CLR,OVC,0.00,WeatherDisplay:10.37,2013-04-16 01:27:00,
2013-04-15 21:32:00,79.0,67.5,30.07,NNW,330,0.7,2.3,68,0.00,CLR,OVC,0.00,WeatherDisplay:10.37,2013-04-16 01:32:00,
2013-04-15 21:37:00,78.9,67.4,30.07,NNW,335,0.0,0.0,68,0.00,CLR,OVC,0.00,WeatherDisplay:10.37,2013-04-16 01:37:00,
2013-04-15 21:42:00,78.8,67.3,30.07,North,352,0.0,0.0,68,0.00,CLR,OVC,0.00,WeatherDisplay:10.37,2013-04-16 01:42:00,
2013-04-15 21:47:00,78.7,67.7,30.07,North,352,0.0,0.0,69,0.00,CLR,OVC,0.00,WeatherDisplay:10.37,2013-04-16 01:47:00,
2013-04-15 21:52:00,78.5,67.1,30.07,North,352,0.0,0.0,68,0.00,CLR,OVC,0.00,WeatherDisplay:10.37,2013-04-16 01:52:00,
2013-04-15 21:57:00,78.3,67.3,30.08,North,352,0.0,0.0,69,0.00,CLR,OVC,0.00,WeatherDisplay:10.37,2013-04-16 01:57:00,
2013-04-15 22:02:00,78.0,67.4,30.08,North,352,0.0,0.0,70,0.00,CLR,OVC,0.00,WeatherDisplay:10.37,2013-04-16 02:02:00,
2013-04-15 22:07:00,77.9,67.3,30.08,North,352,0.0,0.0,70,0.00,CLR,OVC,0.00,WeatherDisplay:10.37,2013-04-16 02:07:00,
2013-04-15 22:12:00,77.7,67.1,30.08,NNW,339,0.0,0.0,70,0.00,CLR,OVC,0.00,WeatherDisplay:10.37,2013-04-16 02:12:00,
2013-04-15 22:17:00,77.5,67.4,30.08,NNW,339,0.0,0.0,71,0.00,CLR,OVC,0.00,WeatherDisplay:10.37,2013-04-16 02:17:00,
2013-04-15 22:22:00,77.4,67.7,30.08,NNW,339,0.0,0.0,72,0.00,CLR,OVC,0.00,WeatherDisplay:10.37,2013-04-16 02:22:00,
2013-04-15 22:27:00,77.4,67.3,30.09,NNW,339,0.0,0.0,71,0.00,CLR,OVC,0.00,WeatherDisplay:10.37,2013-04-16 02:27:00,
2013-04-15 22:32:00,77.3,67.6,30.08,NNW,339,0.0,0.0,72,0.00,CLR,OVC,0.00,WeatherDisplay:10.37,2013-04-16 02:32:00,
2013-04-15 22:37:00,77.1,67.4,30.08,NNW,339,0.0,0.0,72,0.00,CLR,OVC,0.00,WeatherDisplay:10.37,2013-04-16 02:37:00,
2013-04-15 22:42:00,77.1,67.4,30.09,NNW,339,0.0,0.0,72,0.00,CLR,OVC,0.00,WeatherDisplay:10.37,2013-04-16 02:42:00,
2013-04-15 22:47:00,77.1,67.8,30.09,NNW,339,0.0,0.0,73,0.00,CLR,OVC,0.00,WeatherDisplay:10.37,2013-04-16 02:47:00,
2013-04-15 22:52:00,76.9,67.6,30.09,NNW,339,0.0,0.0,73,0.00,CLR,OVC,0.00,WeatherDisplay:10.37,2013-04-16 02:52:00,
2013-04-15 22:57:00,76.8,67.5,30.09,NNW,339,0.0,0.0,73,0.00,CLR,OVC,0.00,WeatherDisplay:10.37,2013-04-16 02:57:00,
2013-04-15 23:02:00,76.5,67.6,30.09,NNW,339,0.0,0.0,74,0.00,CLR,OVC,0.00,WeatherDisplay:10.37,2013-04-16 03:02:00,
2013-04-15 23:07:00,76.3,67.4,30.09,NNW,339,0.0,0.0,74,0.00,CLR,OVC,0.00,WeatherDisplay:10.37,2013-04-16 03:07:00,
2013-04-15 23:12:00,76.3,67.4,30.09,NNW,339,0.0,0.0,74,0.00,CLR,OVC,0.00,WeatherDisplay:10.37,2013-04-16 03:12:00,
2013-04-15 23:17:00,76.1,67.6,30.09,NNW,339,0.0,0.0,75,0.00,CLR,OVC,0.00,WeatherDisplay:10.37,2013-04-16 03:17:00,
2013-04-15 23:22:00,76.1,68.0,30.09,NNW,339,0.0,0.0,76,0.00,CLR,OVC,0.00,WeatherDisplay:10.37,2013-04-16 03:22:00,
2013-04-15 23:27:00,75.9,67.8,30.09,NNW,339,0.0,0.0,76,0.00,CLR,OVC,0.00,WeatherDisplay:10.37,2013-04-16 03:27:00,
2013-04-15 23:32:00,75.7,68.0,30.10,SSE,158,3.9,5.8,77,0.00,CLR,OVC,0.00,WeatherDisplay:10.37,2013-04-16 03:32:00,
2013-04-15 23:37:00,75.7,68.0,30.10,East,79,2.3,3.5,77,0.00,CLR,OVC,0.00,WeatherDisplay:10.37,2013-04-16 03:37:00,
2013-04-15 23:42:00,75.8,68.1,30.10,ENE,69,1.7,2.3,77,0.00,CLR,OVC,0.00,WeatherDisplay:10.37,2013-04-16 03:42:00,
2013-04-15 23:47:00,75.7,67.6,30.09,ENE,58,0.3,1.4,76,0.00,CLR,OVC,0.00,WeatherDisplay:10.37,2013-04-16 03:47:00,
2013-04-15 23:52:00,76.0,67.9,30.10,NE,48,1.1,2.3,76,0.00,CLR,OVC,0.00,WeatherDisplay:10.37,2013-04-16 03:52:00,
2013-04-15 23:57:00,76.0,67.9,30.10,NE,48,0.0,0.0,76,0.00,CLR,OVC,0.00,WeatherDisplay:10.37,2013-04-16 03:57:00,